Location: Cutler
(25.6150°N, 80.3110°W)
Time: 06:53:29
(UTC-04:00)

Vanguard 1 - Pass Details

Date: 30 January 2018
Orbit: 650 x 3833 km, 34.3° (Epoch: 21 May)

Event Time Altitude Azimuth Distance (km) Brightness Sun altitude
Rises 05:47:13 0° 276° (W) 5,505 - -17.9°
Reaches altitude 10° 05:51:12 10° 265° (W) 4,945 - -17.0°
Exits shadow 05:53:12 15° 257° (WSW) 4,752 13.0 -16.6°
Maximum altitude 06:02:55 27° 215° (SW) 4,742 13.3 -14.4°
Drops below altitude 10° 06:19:12 10° 167° (SSE) 6,836 14.7 -10.8°
Sets 06:26:28 0° 156° (SSE) 7,964 15.3 -9.3°
